Overview Statistics Trail Chart Weather Telemetry Raw packets
 

This is the latest recevied weather packets stored in our database for station/object IZ2PAG-10. If no packets are shown the sender has not sent any weather packets the latest 10 day(s).

<< 5 6 7 8 9 10 11 >>
Time Temp. Humidity Pressure Rain* Wind** Luminosity Snow
1788347378 26.67° C 53% 1020.7 hPa - - - -
1788345630 26.67° C 53% 1020.9 hPa - - - -
1788345577 26.67° C 53% 1020.9 hPa - - - -
1788343777 26.67° C 53% 1021.2 hPa - - - -
1788341977 26.67° C 53% 1021.4 hPa - - - -
1788340225 26.67° C 53% 1021.4 hPa - - - -
1788340177 26.67° C 53% 1021.4 hPa - - - -
1788338376 26.11° C 54% 1021.5 hPa - - - -
1788336613 26.67° C 54% 1021.3 hPa - - - -
1788336575 26.67° C 54% 1021.3 hPa - - - -
1788334775 26.67° C 54% 1021.2 hPa - - - -
1788332974 26.11° C 54% 1021.2 hPa - - - -
1788331174 26.67° C 51% 1021 hPa - - - -
1788329373 26.11° C 50% 1021.1 hPa - - - -
1788327573 26.11° C 53% 1020.8 hPa - - - -
1788325804 26.11° C 51% 1020.6 hPa - - - -
1788325773 26.11° C 51% 1020.6 hPa - - - -
1788323972 26.11° C 54% 1020.6 hPa - - - -
1788322171 26.11° C 51% 1020.5 hPa - - - -
1788320371 26.11° C 54% 1020.3 hPa - - - -
1788318571 26.11° C 51% 1020.5 hPa - - - -
1788316771 26.11° C 52% 1020.5 hPa - - - -
1788315002 26.11° C 52% 1020.4 hPa - - - -
1788314971 26.11° C 52% 1020.4 hPa - - - -
1788313272 26.11° C 50% 1020.5 hPa - - - -

* Rain since midnight (hover to see other rain measurements)
** Current wind speed in m/s (hover to see current wind gust speed)